TITAN 3C TRANSTAGE DEB, 26783

Orbit data source: Space-Track

TITAN 3C TRANSTAGE DEB, 26783 is space debris in HEO originally from a launch on Tue, 21 Dec 1965 UTC launched from the Air Force Eastern Test Range (AFETR). Debris objects in space refer to the collection of defunct objects orbiting the Earth. Examples of debris include non-operational satellites, rocket bodies, and fragments generated from explosions, collisions, or faulty payload assembly.

Loading next visibility...
Identifier
26783, 1965-108BB
Orbit
HEO
Country
Flag of USUS
Related business
Manufacturer
Unknown
Mission
Spacecraft
Bus & Motor
Unknown
Mass
Unknown
Launch date (UTC)
1965-12-21 (60 years ago)
Launch vehicle
Unknown
Launch site
Air Force Eastern Test Range (AFETR)
Object type
Payload
Rocket body
Debris
Shape & HBR
Unknown shape, 1.1 m
Radar Cross Section
Medium (>0.1 m² and <1 m²)

Expand to show TLE details & history
Last TLE update: 2 months ago

TLE from 2 months ago
0 TITAN 3C TRANSTAGE DEB
1 26783U 65108BB  26077.69055036 -.00000070  00000-0  00000-0 0  9990
2 26783  27.0621 207.1232 6594658 193.2828 349.5036  2.68257636 50975
Epoch: 2026-03-18T16:34Z
TLE epoch observation values (Epoch: 2026-03-18T16:34:23.551Z)
Latitude
18.76992°
Longitude
-79.1247°
Altitude
2,783.351 km
Speed
8.295 km/s
True Right ascension
23h 02m 53s
True Declination
18° 41' 19"
Sunlit
Object was in daylight at epoch
Visualization orbit readout
Latitude
Unknown
Longitude
Unknown
Altitude
Unknown
Speed
Unknown
Apparent Right ascension
Unknown
Apparent Declination
Unknown
Sunlit
N/A
Visualization observer readout
Local Sidereal Time
22:53:59
Azimuth
Unknown
Elevation
Unknown
Doppler factor
Unknown
Orbital elements
Apogee altitude
29,935.288 km
Perigee altitude
1,073.636 km
Semi-major axis
21,882.599 km
Eccentricity
0.65947
Inclination
27.0621°
RAAN
207.1232°
Arg. of periapsis
193.2828°
True anomaly
301.33773°
Mean anomaly
349.5036°
Eccentric anomaly
331.439°
Mean motion
0.67049 °/min
Orbital period
536.92 mins
BSTAR
0
Loading maneuver chart data...
Computing Atmospheric mass density...

Documentation

Showing up to 5 results
|